Location: Bouchavesnes-Bergen
(49.9859°N, 2.9203°E)
Time: 00:51:42
(UTC+00:00)

IDEFIX/ARIANE 42P - Pass Details

Date: 23 June 2021
Orbit: 784 x 803 km, 98.4° (Epoch: 30 July)

Event Time Altitude Azimuth Distance (km) Brightness Sun altitude
Rises 01:53:20 0° 20° (NNE) 3,316 7.8 -11.7°
Reaches altitude 10° 01:55:52 10° 29° (NNE) 2,378 6.6 -11.5°
Maximum altitude 02:00:42 37° 96° (E) 1,229 3.8 -11.1°
Drops below altitude 10° 02:05:29 10° 163° (SSE) 2,350 4.6 -10.7°
Enters shadow 02:06:50 - 169° (SSE) 2,846 5.0 -10.6°
